KLM1031 EHAM-EGCC

Flight info

Callsign KLM1031
Flight time 0h 50m
Altitude 34000
Route BERGI L60 OTBED
Aircraft A21N/M-SDE2E3FGHIJ1RWXY/LB1

Departure

Time 2026-05-03 22:38
Airport Amsterdam Airport Schiphol (EHAM)

Arrival

Time 2026-05-03 23:28
Airport Manchester Airport (EGCC)
Time Latitude Longitude Altitude Speed Heading
2026-05-03 22:20 52.30789 4.77356 4 ft 0 kts 183°
2026-05-03 22:32 52.30796 4.77356 4 ft 3 kts 197°
2026-05-03 22:32 52.30811 4.77370 4 ft 1 kts 213°
2026-05-03 22:32 52.30821 4.77380 4 ft 3 kts 162°
2026-05-03 22:32 52.30830 4.77365 4 ft 3 kts 119°
2026-05-03 22:33 52.30837 4.77336 4 ft 2 kts 109°
2026-05-03 22:33 52.30837 4.77335 4 ft 0 kts 109°
2026-05-03 22:35 52.30836 4.77372 4 ft 6 kts 90°
2026-05-03 22:35 52.30819 4.77456 4 ft 10 kts 153°
2026-05-03 22:36 52.30740 4.77459 4 ft 13 kts 184°
2026-05-03 22:36 52.30646 4.77474 4 ft 15 kts 152°
2026-05-03 22:36 52.30545 4.77560 4 ft 16 kts 153°
2026-05-03 22:36 52.30473 4.77626 4 ft 13 kts 150°
2026-05-03 22:37 52.30432 4.77659 5 ft 5 kts 183°
2026-05-03 22:37 52.30396 4.77594 4 ft 13 kts 234°
2026-05-03 22:37 52.30258 4.77219 2 ft 74 kts 236°
2026-05-03 22:37 52.29864 4.76205 2 ft 135 kts 238°
2026-05-03 22:38 52.29484 4.75218 26 ft 164 kts 237°
2026-05-03 22:38 52.28919 4.73661 691 ft 155 kts 240°
2026-05-03 22:38 52.28426 4.72102 1262 ft 162 kts 242°
2026-05-03 22:38 52.28236 4.70181 1631 ft 187 kts 277°
2026-05-03 22:39 52.28766 4.68081 2155 ft 212 kts 298°
2026-05-03 22:39 52.29660 4.66058 2808 ft 230 kts 304°
2026-05-03 22:39 52.30686 4.63863 3375 ft 254 kts 305°
2026-05-03 22:39 52.31796 4.61522 4212 ft 265 kts 305°
2026-05-03 22:40 52.32943 4.59117 5067 ft 270 kts 304°
2026-05-03 22:40 52.34108 4.56673 5871 ft 278 kts 304°
2026-05-03 22:40 52.35348 4.54067 6337 ft 302 kts 305°
2026-05-03 22:40 52.36696 4.51236 6684 ft 327 kts 305°
2026-05-03 22:41 52.38136 4.48213 7036 ft 347 kts 305°
2026-05-03 22:41 52.39659 4.45016 7442 ft 364 kts 305°
2026-05-03 22:41 52.41247 4.41679 7922 ft 378 kts 305°
2026-05-03 22:41 52.42883 4.38236 8660 ft 385 kts 305°
2026-05-03 22:42 52.44529 4.34756 9473 ft 389 kts 304°
2026-05-03 22:42 52.46197 4.31229 10228 ft 393 kts 304°
2026-05-03 22:42 52.47863 4.27699 10913 ft 397 kts 304°
2026-05-03 22:42 52.49563 4.24111 11585 ft 401 kts 304°
2026-05-03 22:43 52.51267 4.20513 12225 ft 405 kts 304°
2026-05-03 22:43 52.52998 4.16842 12840 ft 408 kts 304°
2026-05-03 22:43 52.54740 4.13132 13464 ft 412 kts 304°
2026-05-03 22:43 52.56499 4.09388 14031 ft 415 kts 304°
2026-05-03 22:44 52.58273 4.05616 14519 ft 418 kts 304°
2026-05-03 22:44 52.60058 4.01802 15072 ft 421 kts 304°
2026-05-03 22:44 52.61851 3.97969 15624 ft 424 kts 304°
2026-05-03 22:44 52.63650 3.94115 16121 ft 426 kts 304°
2026-05-03 22:45 52.65460 3.90230 16571 ft 429 kts 304°
2026-05-03 22:45 52.67283 3.86309 17000 ft 431 kts 304°
2026-05-03 22:45 52.69109 3.82373 17425 ft 434 kts 303°
2026-05-03 22:45 52.70950 3.78407 17847 ft 437 kts 303°
2026-05-03 22:46 52.72799 3.74412 18262 ft 439 kts 303°
2026-05-03 22:46 52.74656 3.70400 18623 ft 442 kts 303°
2026-05-03 22:46 52.76524 3.66354 18994 ft 444 kts 303°
2026-05-03 22:46 52.78401 3.62283 19367 ft 446 kts 303°
2026-05-03 22:47 52.80284 3.58182 19765 ft 449 kts 303°
2026-05-03 22:47 52.82178 3.54056 20143 ft 451 kts 303°
2026-05-03 22:47 52.84079 3.49911 20500 ft 454 kts 303°
2026-05-03 22:47 52.85998 3.45728 20929 ft 456 kts 303°
2026-05-03 22:48 52.87917 3.41534 21408 ft 459 kts 303°
2026-05-03 22:48 52.89824 3.37352 21891 ft 462 kts 303°
2026-05-03 22:48 52.91760 3.33103 22299 ft 464 kts 302°
2026-05-03 22:48 52.93709 3.28816 22696 ft 467 kts 303°
2026-05-03 22:49 52.95669 3.24500 23081 ft 469 kts 302°
2026-05-03 22:49 52.97459 3.19997 23457 ft 467 kts 294°
2026-05-03 22:49 52.98708 3.15041 23802 ft 463 kts 284°
2026-05-03 22:49 52.99684 3.09959 24172 ft 464 kts 283°
2026-05-03 22:50 53.00643 3.04832 24613 ft 463 kts 283°
2026-05-03 22:50 53.01597 2.99721 25059 ft 463 kts 283°
2026-05-03 22:50 53.02555 2.94618 25491 ft 462 kts 282°
2026-05-03 22:50 53.03514 2.89526 25952 ft 462 kts 282°
2026-05-03 22:51 53.04470 2.84425 26410 ft 461 kts 282°
2026-05-03 22:51 53.05422 2.79348 26866 ft 460 kts 282°
2026-05-03 22:51 53.06371 2.74279 27303 ft 459 kts 282°
2026-05-03 22:51 53.07317 2.69210 27751 ft 458 kts 281°
2026-05-03 22:52 53.08254 2.64174 28359 ft 453 kts 281°
2026-05-03 22:52 53.09175 2.59206 29123 ft 446 kts 281°
2026-05-03 22:52 53.10084 2.54270 29520 ft 448 kts 281°
2026-05-03 22:52 53.10897 2.49285 30062 ft 440 kts 275°
2026-05-03 22:53 53.11363 2.44314 30679 ft 431 kts 271°
2026-05-03 22:53 53.11768 2.39393 31186 ft 429 kts 271°
2026-05-03 22:53 53.12165 2.34473 31594 ft 428 kts 271°
2026-05-03 22:53 53.12565 2.29564 31941 ft 430 kts 271°
2026-05-03 22:54 53.12971 2.24584 31984 ft 438 kts 271°
2026-05-03 22:54 53.13783 2.14398 31940 ft 445 kts 271°
2026-05-03 22:55 53.14597 2.04162 31921 ft 445 kts 271°
2026-05-03 22:55 53.15402 1.93963 31920 ft 445 kts 271°
2026-05-03 22:56 53.16199 1.83718 31923 ft 445 kts 271°
2026-05-03 22:56 53.16995 1.73476 31922 ft 445 kts 270°
2026-05-03 22:57 53.17757 1.63229 31927 ft 445 kts 270°
2026-05-03 22:57 53.18529 1.53043 31923 ft 446 kts 270°
2026-05-03 22:58 53.19306 1.42748 31926 ft 446 kts 270°
2026-05-03 22:58 53.20060 1.32461 31926 ft 446 kts 270°
2026-05-03 22:59 53.20804 1.22175 31926 ft 447 kts 270°
2026-05-03 22:59 53.21546 1.11874 31933 ft 447 kts 270°
2026-05-03 23:00 53.22280 1.01573 31942 ft 447 kts 270°
2026-05-03 23:00 53.22994 0.91254 31922 ft 448 kts 270°
2026-05-03 23:01 53.23708 0.80984 31931 ft 448 kts 270°
2026-05-03 23:01 53.24402 0.70633 31942 ft 448 kts 270°
2026-05-03 23:02 53.25100 0.60278 31942 ft 449 kts 270°
2026-05-03 23:02 53.25791 0.49899 31725 ft 449 kts 270°
2026-05-03 23:02 53.26139 0.44711 31500 ft 449 kts 270°
2026-05-03 23:03 53.26475 0.39521 31254 ft 450 kts 270°
2026-05-03 23:03 53.26811 0.34331 31008 ft 450 kts 270°
2026-05-03 23:03 53.27145 0.29125 30728 ft 451 kts 270°
2026-05-03 23:03 53.27481 0.23917 30397 ft 451 kts 270°
2026-05-03 23:04 53.27815 0.18695 30076 ft 454 kts 270°
2026-05-03 23:04 53.28140 0.13449 29689 ft 453 kts 270°
2026-05-03 23:04 53.28462 0.08209 29303 ft 454 kts 270°
2026-05-03 23:04 53.29044 0.02977 28983 ft 464 kts 281°
2026-05-03 23:05 53.30270 -0.02087 28946 ft 473 kts 290°
2026-05-03 23:05 53.33193 -0.11973 28956 ft 474 kts 290°
2026-05-03 23:06 53.36091 -0.21893 28974 ft 474 kts 290°
2026-05-03 23:06 53.38974 -0.31816 28982 ft 474 kts 290°
2026-05-03 23:07 53.41865 -0.41754 28990 ft 474 kts 290°
2026-05-03 23:07 53.44670 -0.51529 27982 ft 461 kts 290°
2026-05-03 23:07 53.46062 -0.56417 26751 ft 464 kts 290°
2026-05-03 23:08 53.47460 -0.61319 25625 ft 467 kts 291°
2026-05-03 23:08 53.48861 -0.66222 24717 ft 464 kts 291°
2026-05-03 23:08 53.50253 -0.71085 23918 ft 460 kts 291°
2026-05-03 23:08 53.51626 -0.75913 23042 ft 455 kts 291°
2026-05-03 23:09 53.52987 -0.80702 22166 ft 450 kts 291°
2026-05-03 23:09 53.54306 -0.85355 21357 ft 444 kts 291°
2026-05-03 23:09 53.55625 -0.90013 20564 ft 438 kts 292°
2026-05-03 23:09 53.56924 -0.94616 19780 ft 432 kts 291°
2026-05-03 23:10 53.58206 -0.99194 19012 ft 427 kts 291°
2026-05-03 23:10 53.59469 -1.03684 18262 ft 422 kts 292°
2026-05-03 23:10 53.60666 -1.08164 17512 ft 415 kts 287°
2026-05-03 23:10 53.61317 -1.12800 17114 ft 406 kts 272°
2026-05-03 23:11 53.61221 -1.17520 16997 ft 399 kts 257°
2026-05-03 23:11 53.60571 -1.22047 16970 ft 396 kts 248°
2026-05-03 23:11 53.59381 -1.26091 16778 ft 381 kts 236°
2026-05-03 23:11 53.57898 -1.29768 15854 ft 380 kts 231°
2026-05-03 23:12 53.56319 -1.33349 15009 ft 378 kts 231°
2026-05-03 23:12 53.54738 -1.36859 14267 ft 375 kts 230°
2026-05-03 23:12 53.53159 -1.40339 13519 ft 371 kts 230°
2026-05-03 23:12 53.51611 -1.43733 12854 ft 369 kts 230°
2026-05-03 23:13 53.50053 -1.47139 12282 ft 366 kts 230°
2026-05-03 23:13 53.48505 -1.50521 11764 ft 364 kts 230°
2026-05-03 23:13 53.46967 -1.53878 11258 ft 362 kts 230°
2026-05-03 23:13 53.45437 -1.57211 10887 ft 359 kts 230°
2026-05-03 23:14 53.43911 -1.60541 10605 ft 359 kts 230°
2026-05-03 23:14 53.42388 -1.63862 10345 ft 358 kts 230°
2026-05-03 23:14 53.40888 -1.67133 10106 ft 357 kts 230°
2026-05-03 23:14 53.39364 -1.70463 9964 ft 356 kts 230°
2026-05-03 23:15 53.37912 -1.73811 9951 ft 349 kts 233°
2026-05-03 23:15 53.36629 -1.77116 9951 ft 328 kts 235°
2026-05-03 23:15 53.35461 -1.80213 9957 ft 309 kts 235°
2026-05-03 23:15 53.34352 -1.83179 9960 ft 292 kts 235°
2026-05-03 23:16 53.33305 -1.85990 9862 ft 279 kts 235°
2026-05-03 23:16 53.32287 -1.88726 9486 ft 276 kts 235°
2026-05-03 23:16 53.31269 -1.91445 9032 ft 276 kts 235°
2026-05-03 23:16 53.30244 -1.94169 8579 ft 275 kts 235°
2026-05-03 23:17 53.29222 -1.96878 8138 ft 275 kts 235°
2026-05-03 23:17 53.28198 -1.99574 7702 ft 275 kts 235°
2026-05-03 23:17 53.27177 -2.02247 7298 ft 275 kts 235°
2026-05-03 23:17 53.26147 -2.04936 6888 ft 274 kts 235°
2026-05-03 23:18 53.25116 -2.07608 6497 ft 274 kts 235°
2026-05-03 23:18 53.24080 -2.10272 6085 ft 273 kts 234°
2026-05-03 23:18 53.23042 -2.12923 5669 ft 272 kts 235°
2026-05-03 23:18 53.22005 -2.15562 5251 ft 272 kts 235°
2026-05-03 23:19 53.20965 -2.18187 4858 ft 270 kts 235°
2026-05-03 23:19 53.20278 -2.19912 4595 ft 270 kts 235°
2026-05-03 23:19 53.19236 -2.22513 4184 ft 269 kts 235°
2026-05-03 23:19 53.18186 -2.25103 3775 ft 269 kts 235°
2026-05-03 23:20 53.17128 -2.27686 3388 ft 269 kts 235°
2026-05-03 23:20 53.16063 -2.30263 3052 ft 270 kts 235°
2026-05-03 23:20 53.15009 -2.32801 2967 ft 270 kts 235°
2026-05-03 23:20 53.13948 -2.35373 2961 ft 264 kts 238°
2026-05-03 23:21 53.13353 -2.38138 2952 ft 246 kts 265°
2026-05-03 23:21 53.13571 -2.40815 2954 ft 225 kts 295°
2026-05-03 23:21 53.14477 -2.42832 2969 ft 216 kts 320°
2026-05-03 23:21 53.15624 -2.44414 2983 ft 216 kts 323°
2026-05-03 23:22 53.17970 -2.47516 2982 ft 208 kts 324°
2026-05-03 23:22 53.19058 -2.48960 2959 ft 195 kts 324°
2026-05-03 23:22 53.20119 -2.50367 2969 ft 194 kts 325°
2026-05-03 23:23 53.21330 -2.51237 2976 ft 190 kts 358°
2026-05-03 23:23 53.22618 -2.50917 2990 ft 188 kts 18°
2026-05-03 23:23 53.23855 -2.50226 2994 ft 187 kts 28°
2026-05-03 23:23 53.24905 -2.48978 2996 ft 185 kts 45°
2026-05-03 23:24 53.25769 -2.47387 2993 ft 185 kts 53°
2026-05-03 23:24 53.26563 -2.45699 2872 ft 184 kts 52°
2026-05-03 23:24 53.27356 -2.44054 2646 ft 183 kts 51°
2026-05-03 23:24 53.28137 -2.42442 2441 ft 173 kts 51°
2026-05-03 23:25 53.28878 -2.40912 2213 ft 166 kts 51°
2026-05-03 23:25 53.29597 -2.39428 1967 ft 161 kts 51°
2026-05-03 23:25 53.30289 -2.38000 1731 ft 153 kts 51°
2026-05-03 23:25 53.30925 -2.36686 1542 ft 138 kts 51°
2026-05-03 23:26 53.31496 -2.35507 1348 ft 125 kts 51°
2026-05-03 23:26 53.32037 -2.34389 1149 ft 123 kts 50°
2026-05-03 23:26 53.32576 -2.33275 965 ft 123 kts 50°
2026-05-03 23:26 53.33118 -2.32157 784 ft 124 kts 50°
2026-05-03 23:27 53.33656 -2.31060 594 ft 123 kts 50°
2026-05-03 23:27 53.34187 -2.29943 429 ft 123 kts 50°
2026-05-03 23:27 53.34730 -2.28829 292 ft 123 kts 50°
2026-05-03 23:27 53.35236 -2.27788 247 ft 102 kts 51°
2026-05-03 23:28 53.35573 -2.27086 263 ft 51 kts 50°
2026-05-03 23:28 53.35734 -2.26756 270 ft 23 kts 51°
2026-05-03 23:28 53.35809 -2.26680 270 ft 13 kts 349°
2026-05-03 23:28 53.35888 -2.26703 263 ft 9 kts 342°
2026-05-03 23:29 53.35908 -2.26796 261 ft 11 kts 250°
2026-05-03 23:29 53.35863 -2.26918 261 ft 14 kts 232°
2026-05-03 23:29 53.35806 -2.27064 261 ft 13 kts 241°
2026-05-03 23:29 53.35750 -2.27183 261 ft 14 kts 231°
2026-05-03 23:30 53.35684 -2.27320 260 ft 16 kts 231°
2026-05-03 23:30 53.35631 -2.27432 260 ft 8 kts 232°
2026-05-03 23:30 53.35628 -2.27543 261 ft 12 kts 312°
2026-05-03 23:30 53.35709 -2.27627 261 ft 15 kts 338°
2026-05-03 23:31 53.35804 -2.27721 261 ft 17 kts 316°
2026-05-03 23:31 53.35865 -2.27833 261 ft 9 kts 319°
2026-05-03 23:31 53.35936 -2.27841 261 ft 12 kts
2026-05-03 23:31 53.36031 -2.27835 261 ft 15 kts 348°
2026-05-03 23:32 53.36121 -2.27935 261 ft 18 kts 302°
2026-05-03 23:32 53.36204 -2.28083 261 ft 20 kts 315°
2026-05-03 23:32 53.36303 -2.28249 260 ft 16 kts 314°
2026-05-03 23:32 53.36352 -2.28333 260 ft 11 kts 315°
2026-05-03 23:33 53.36398 -2.28410 260 ft 9 kts 315°
2026-05-03 23:33 53.36434 -2.28473 260 ft 8 kts 313°
2026-05-03 23:33 53.36461 -2.28518 260 ft 3 kts 316°
2026-05-03 23:33 53.36467 -2.28528 260 ft 3 kts 316°
2026-05-03 23:34 53.36469 -2.28572 260 ft 6 kts 240°
2026-05-03 23:34 53.36437 -2.28633 260 ft 6 kts 225°
2026-05-03 23:34 53.36427 -2.28649 260 ft 0 kts 225°